STARLINK-36836, 68065

Orbit data source: Space-Track

STARLINK-36836, 68065 is a payload satellite owned by SpaceX/Seattle (US) in LEO that was launched on Mon, 02 Mar 2026 UTC via an FALCON 9 launch vehicle from the Air Force Eastern Test Range (AFETR). Payload-class satellites include a variety of spacecraft equipped with specific instruments for various scientific and technological missions. These include communications satellites like Starlink; space stations such as the ISS; scientific satellites like the Hubble; Earth observation satellites from companies like Planet Labs, Umbra, and HawkEye 360; GPS; miniature CubeSats for education and research; and military/defense satellites.

Loading next visibility...
Identifier
68065, 2026-041AB
Orbit
LEO
Country
Flag of USUS
Related business
Manufacturer
SpaceX/Seattle
Mission
Operational Commercial Communications
Bus & Motor
STARLINK V2MO, Unknown motor
Mass
575 kg wet, ~530 kg dry
Launch date (UTC)
2026-03-02 (2 months ago)
Launch vehicle
FALCON 9
Launch site
Air Force Eastern Test Range (AFETR)
Object type
Payload
Rocket body
Debris
Shape & HBR
Box + 2 Pan, 17.7 m
Radar Cross Section
36.964 m²

Expand to show TLE details & history
Last TLE update: 14 hours ago

TLE from 14 hours ago
0 STARLINK-36836
1 68065U 26041AB  26118.87977973  .00023519  00000-0  80339-3 0  9999
2 68065  53.1606 176.6634 0001310  95.9163 264.1987 15.30211867  9076
Epoch: 2026-04-28T21:06Z
TLE epoch observation values (Epoch: 2026-04-28T21:06:52.968Z)
Latitude
-0.00004°
Longitude
3.09392°
Altitude
476.17 km
Speed
7.629 km/s
True Right ascension
11h 46m 39s
True Declination
0° 00' 00"
Sunlit
Object was in full shadow at epoch
Visualization orbit readout
Latitude
Unknown
Longitude
Unknown
Altitude
Unknown
Speed
Unknown
Apparent Right ascension
Unknown
Apparent Declination
Unknown
Sunlit
N/A
Visualization observer readout
Local Sidereal Time
18:18:26
Azimuth
Unknown
Elevation
Unknown
Doppler factor
Unknown
Orbital elements
Apogee altitude
476.334 km
Perigee altitude
474.538 km
Semi-major axis
6,853.573 km
Eccentricity
0.00013
Inclination
53.1606°
RAAN
176.6634°
Arg. of periapsis
95.9163°
True anomaly
264.18377°
Mean anomaly
264.1987°
Eccentric anomaly
264.19123°
Mean motion
3.82532 °/min
Orbital period
94.11 mins
BSTAR
0.00080339
Loading maneuver chart data...
Computing Atmospheric mass density...
Loading historical data...
Loading historical data...
Loading historical data...
Loading historical data...
Loading historical data...
Loading historical data...
Loading historical data...

Documentation

Showing up to 5 results
|